Simultaneous Nadir Overpasses (SNOs) Predictions

Prediction of SNOs between METOP-B and NOAA-19 Satellite Orbit:

Table of predicted SNOs for the next 14.0 days since TLE Epoch: 8/11/2017
Index Date (METOP-B) Time (METOP-B) Lat,Lon (METOP-B) SZA (METOP-B ) Date (NOAA-19) Time (NOAA-19) Lat,Lon (NOAA-19) SZA (NOAA-19 ) Distance(km) Time Diff (sec)
1 08/18/2017 05:01:29 77.46, 110.23 64.41 08/18/2017 05:00:25 77.45, 110.37 64.39 3.58 64
2 08/18/2017 05:52:11 -77.46, -82.47 115.59 08/18/2017 05:51:24 -77.46, -82.43 115.59 1.37 47
3 08/18/2017 06:42:51 77.44, 84.80 64.41 08/18/2017 06:42:27 77.47, 84.77 64.43 3.33 24
4 08/18/2017 07:33:33 -77.44,-107.90 115.59 08/18/2017 07:33:25 -77.44,-107.83 115.58 1.89 8
5 08/18/2017 08:24:13 77.42, 59.37 64.41 08/18/2017 08:24:28 77.45, 59.37 64.44 3.19 15
6 08/18/2017 09:14:55 -77.42,-133.33 115.59 08/18/2017 09:15:26 -77.42,-133.23 115.58 2.51 31
7 08/18/2017 10:05:34 77.40, 33.94 64.41 08/18/2017 10:06:28 77.43, 33.97 64.44 3.20 54
8 08/18/2017 10:56:16 -77.40,-158.76 115.59 08/18/2017 10:57:26 -77.40,-158.63 115.58 3.17 70




NCC Satellite Simultaneous Nadir Overpasses (SNOs) Prediction Service
